Location: Julian California
(33.0790°N, 116.6010°W)
Time: 00:32:14
(UTC-07:00)

Atlas 2A Centaur Rocket - Pass Details

Date: 14 June 2018
Orbit: 265 x 19766 km, 27.0° (Epoch: 19 June)

Event Time Altitude Azimuth Distance (km) Brightness Sun altitude
Rises 19:41:20 0° 255° (WSW) 2,889 6.3 2.0°
Reaches altitude 10° 19:42:42 10° 251° (WSW) 2,343 5.8 1.7°
Maximum altitude 19:47:45 62° 170° (S) 1,764 4.3 0.8°
Drops below altitude 10° 20:17:20 10° 97° (E) 11,601 7.9 -4.6°
Sets 20:44:44 0° 98° (E) 17,801 8.9 -9.4°
